Time,TemperatureF,DewpointF,PressureIn,WindDirection,WindDirectionDegrees,WindSpeedMPH,WindSpeedGustMPH,Humidity,HourlyPrecipIn,Conditions,Clouds,dailyrainin,SoftwareType,DateUTC
2013-01-28 00:01:00,-999.0,-99.9,-100.00,NW,320,9.0,-999.0,-999,-99.99,,,-99.99,,2013-01-28 08:01:00,
2013-01-28 00:11:00,-999.0,-99.9,-100.00,NW,309,8.0,-999.0,-999,-99.99,,,-99.99,,2013-01-28 08:11:00,
2013-01-28 00:22:00,-999.0,-99.9,-100.00,NW,309,8.0,-999.0,-999,-99.99,,,-99.99,,2013-01-28 08:22:00,
2013-01-28 00:32:00,-999.0,-99.9,-100.00,NW,309,8.0,-999.0,-999,-99.99,,,-99.99,,2013-01-28 08:32:00,
2013-01-28 00:42:00,-999.0,-99.9,-100.00,WNW,286,7.0,-999.0,-999,-99.99,,,-99.99,,2013-01-28 08:42:00,
2013-01-28 00:53:00,-999.0,-99.9,-100.00,WNW,303,10.0,-999.0,-999,-99.99,,,-99.99,,2013-01-28 08:53:00,
2013-01-28 01:02:00,-999.0,-99.9,-100.00,WNW,303,10.0,-999.0,-999,-99.99,,,-99.99,,2013-01-28 09:02:00,
2013-01-28 01:12:00,-999.0,-99.9,-100.00,WNW,303,12.0,-999.0,-999,-99.99,,,-99.99,,2013-01-28 09:12:00,
2013-01-28 01:33:00,-999.0,-99.9,-100.00,North,354,11.0,-999.0,-999,-99.99,,,-99.99,,2013-01-28 09:33:00,
2013-01-28 01:42:00,-999.0,-99.9,-100.00,North,0,10.0,-999.0,-999,-99.99,,,-99.99,,2013-01-28 09:42:00,
2013-01-28 01:52:00,-999.0,-99.9,-100.00,North,0,10.0,-999.0,-999,-99.99,,,-99.99,,2013-01-28 09:52:00,
2013-01-28 02:02:00,-999.0,-99.9,-100.00,NNW,337,9.0,-999.0,-999,-99.99,,,-99.99,,2013-01-28 10:02:00,
2013-01-28 02:11:00,-999.0,-99.9,-100.00,NW,326,11.0,-999.0,-999,-99.99,,,-99.99,,2013-01-28 10:11:00,
2013-01-28 02:32:00,-999.0,-99.9,-100.00,NNW,343,11.0,-999.0,-999,-99.99,,,-99.99,,2013-01-28 10:32:00,
2013-01-28 02:42:00,-999.0,-99.9,-100.00,NNW,331,15.0,-999.0,-999,-99.99,,,-99.99,,2013-01-28 10:42:00,
2013-01-28 03:03:00,-999.0,-99.9,-100.00,NNW,343,13.0,-999.0,-999,-99.99,,,-99.99,,2013-01-28 11:03:00,
2013-01-28 03:11:00,-999.0,-99.9,-100.00,NNW,343,12.0,-999.0,-999,-99.99,,,-99.99,,2013-01-28 11:11:00,
2013-01-28 03:22:00,-999.0,-99.9,-100.00,NNW,343,12.0,-999.0,-999,-99.99,,,-99.99,,2013-01-28 11:22:00,
2013-01-28 03:33:00,-999.0,-99.9,-100.00,North,354,10.0,-999.0,-999,-99.99,,,-99.99,,2013-01-28 11:33:00,
2013-01-28 03:42:00,-999.0,-99.9,-100.00,North,354,10.0,-999.0,-999,-99.99,,,-99.99,,2013-01-28 11:42:00,
2013-01-28 03:53:00,-999.0,-99.9,-100.00,NNW,348,7.0,-999.0,-999,-99.99,,,-99.99,,2013-01-28 11:53:00,
2013-01-28 04:04:00,-999.0,-99.9,-100.00,NNW,348,7.0,-999.0,-999,-99.99,,,-99.99,,2013-01-28 12:04:00,
2013-01-28 04:12:00,-999.0,-99.9,-100.00,NNW,348,7.0,-999.0,-999,-99.99,,,-99.99,,2013-01-28 12:12:00,
2013-01-28 05:11:00,43.0,28.0,-100.00,North,-999,-999.0,-999.0,56,-99.99,,,-99.99,,2013-01-28 13:11:00,
2013-01-28 05:23:00,-999.0,-99.9,-100.00,North,354,5.0,-999.0,-999,-99.99,,,-99.99,,2013-01-28 13:23:00,
2013-01-28 05:34:00,-999.0,-99.9,-100.00,NNW,343,9.0,-999.0,-999,-99.99,,,-99.99,,2013-01-28 13:34:00,
2013-01-28 05:43:00,-999.0,-99.9,-100.00,NNW,343,9.0,-999.0,-999,-99.99,,,-99.99,,2013-01-28 13:43:00,
2013-01-28 06:12:00,-999.0,-99.9,-100.00,NW,315,9.0,-999.0,-999,-99.99,,,-99.99,,2013-01-28 14:12:00,
2013-01-28 06:23:00,-999.0,-99.9,-100.00,NW,315,11.0,-999.0,-999,-99.99,,,-99.99,,2013-01-28 14:23:00,
2013-01-28 06:33:00,-999.0,-99.9,-100.00,NNW,348,13.0,-999.0,-999,-99.99,,,-99.99,,2013-01-28 14:33:00,
2013-01-28 06:43:00,-999.0,-99.9,-100.00,NNW,348,13.0,-999.0,-999,-99.99,,,-99.99,,2013-01-28 14:43:00,
2013-01-28 06:53:00,-999.0,-99.9,-100.00,NNW,348,13.0,-999.0,-999,-99.99,,,-99.99,,2013-01-28 14:53:00,
2013-01-28 07:03:00,-999.0,-99.9,-100.00,NNW,343,13.0,-999.0,-999,-99.99,,,-99.99,,2013-01-28 15:03:00,
2013-01-28 07:13:00,-999.0,-99.9,-100.00,NNW,343,13.0,-999.0,-999,-99.99,,,-99.99,,2013-01-28 15:13:00,
2013-01-28 08:13:00,-999.0,-99.9,-100.00,NNW,348,8.0,-999.0,-999,-99.99,,,-99.99,,2013-01-28 16:13:00,
2013-01-28 08:33:00,-999.0,-99.9,-100.00,NW,320,10.0,-999.0,-999,-99.99,,,-99.99,,2013-01-28 16:33:00,
2013-01-28 09:02:00,-999.0,-99.9,-100.00,NNW,337,14.0,-999.0,-999,-99.99,,,-99.99,,2013-01-28 17:02:00,
2013-01-28 09:12:00,-999.0,-99.9,-100.00,NNW,337,14.0,-999.0,-999,-99.99,,,-99.99,,2013-01-28 17:12:00,
2013-01-28 09:33:00,-999.0,-99.9,-100.00,NNW,337,13.0,-999.0,-999,-99.99,,,-99.99,,2013-01-28 17:33:00,
2013-01-28 09:42:00,-999.0,-99.9,-100.00,NNW,337,13.0,-999.0,-999,-99.99,,,-99.99,,2013-01-28 17:42:00,
2013-01-28 09:53:00,-999.0,-99.9,-100.00,NNW,337,13.0,-999.0,-999,-99.99,,,-99.99,,2013-01-28 17:53:00,
2013-01-28 10:03:00,-999.0,-99.9,-100.00,WNW,303,16.0,-999.0,-999,-99.99,,,-99.99,,2013-01-28 18:03:00,
2013-01-28 10:13:00,-999.0,-99.9,-100.00,NW,320,17.0,-999.0,-999,-99.99,,,-99.99,,2013-01-28 18:13:00,
2013-01-28 10:23:00,-999.0,-99.9,-100.00,NW,320,17.0,-999.0,-999,-99.99,,,-99.99,,2013-01-28 18:23:00,
2013-01-28 10:33:00,-999.0,-99.9,-100.00,NW,309,18.0,-999.0,-999,-99.99,,,-99.99,,2013-01-28 18:33:00,
2013-01-28 10:43:00,-999.0,-99.9,-100.00,NW,320,18.0,-999.0,-999,-99.99,,,-99.99,,2013-01-28 18:43:00,
2013-01-28 10:53:00,-999.0,-99.9,-100.00,NW,320,19.0,-999.0,-999,-99.99,,,-99.99,,2013-01-28 18:53:00,
2013-01-28 11:03:00,-999.0,-99.9,-100.00,NNW,331,18.0,-999.0,-999,-99.99,,,-99.99,,2013-01-28 19:03:00,
2013-01-28 11:13:00,-999.0,-99.9,-100.00,NNW,337,17.0,-999.0,-999,-99.99,,,-99.99,,2013-01-28 19:13:00,
2013-01-28 11:23:00,-999.0,-99.9,-100.00,NNW,337,17.0,-999.0,-999,-99.99,,,-99.99,,2013-01-28 19:23:00,
2013-01-28 11:33:00,-999.0,-99.9,-100.00,NNW,337,18.0,-999.0,-999,-99.99,,,-99.99,,2013-01-28 19:33:00,
2013-01-28 11:43:00,-999.0,-99.9,-100.00,NW,315,17.0,-999.0,-999,-99.99,,,-99.99,,2013-01-28 19:43:00,
2013-01-28 11:53:00,-999.0,-99.9,-100.00,NW,309,19.0,-999.0,-999,-99.99,,,-99.99,,2013-01-28 19:53:00,
2013-01-28 12:03:00,-999.0,-99.9,-100.00,NW,309,19.0,-999.0,-999,-99.99,,,-99.99,,2013-01-28 20:03:00,
2013-01-28 12:11:00,49.0,18.0,-100.00,North,-999,-999.0,-999.0,28,-99.99,,,-99.99,,2013-01-28 20:11:00,
2013-01-28 12:22:00,-999.0,-99.9,-100.00,NW,309,20.0,-999.0,-999,-99.99,,,-99.99,,2013-01-28 20:22:00,
2013-01-28 12:33:00,-999.0,-99.9,-100.00,WNW,298,21.0,-999.0,-999,-99.99,,,-99.99,,2013-01-28 20:33:00,
2013-01-28 12:43:00,-999.0,-99.9,-100.00,WNW,298,20.0,-999.0,-999,-99.99,,,-99.99,,2013-01-28 20:43:00,
2013-01-28 12:52:00,50.0,15.0,-100.00,North,-999,-999.0,-999.0,24,-99.99,,,0.00,,2013-01-28 20:52:00,
2013-01-28 13:04:00,-999.0,-99.9,-100.00,WNW,292,18.0,-999.0,-999,-99.99,,,-99.99,,2013-01-28 21:04:00,
2013-01-28 13:12:00,-999.0,-99.9,-100.00,WNW,298,15.0,-999.0,-999,-99.99,,,-99.99,,2013-01-28 21:12:00,
2013-01-28 13:34:00,-999.0,-99.9,-100.00,North,354,13.0,-999.0,-999,-99.99,,,-99.99,,2013-01-28 21:34:00,
2013-01-28 13:43:00,-999.0,-99.9,-100.00,NW,315,15.0,-999.0,-999,-99.99,,,-99.99,,2013-01-28 21:43:00,
2013-01-28 14:12:00,-999.0,-99.9,-100.00,NW,309,13.0,-999.0,-999,-99.99,,,-99.99,,2013-01-28 22:12:00,
2013-01-28 14:23:00,-999.0,-99.9,-100.00,NW,309,13.0,-999.0,-999,-99.99,,,-99.99,,2013-01-28 22:23:00,
2013-01-28 14:33:00,-999.0,-99.9,-100.00,North,354,10.0,-999.0,-999,-99.99,,,-99.99,,2013-01-28 22:33:00,
2013-01-28 14:43:00,-999.0,-99.9,-100.00,WNW,303,14.0,-999.0,-999,-99.99,,,-99.99,,2013-01-28 22:43:00,
2013-01-28 14:53:00,-999.0,-99.9,-100.00,WNW,303,14.0,-999.0,-999,-99.99,,,-99.99,,2013-01-28 22:53:00,
2013-01-28 15:03:00,-999.0,-99.9,-100.00,NW,326,13.0,-999.0,-999,-99.99,,,-99.99,,2013-01-28 23:03:00,
2013-01-28 15:53:00,54.0,11.0,-100.00,North,-999,-999.0,-999.0,17,-99.99,,,-99.99,,2013-01-28 23:53:00,
2013-01-28 16:03:00,-999.0,-99.9,-100.00,NW,315,5.0,-999.0,-999,-99.99,,,-99.99,,2013-01-29 00:03:00,
2013-01-28 16:13:00,-999.0,-99.9,-100.00,NW,315,5.0,-999.0,-999,-99.99,,,-99.99,,2013-01-29 00:13:00,
2013-01-28 16:42:00,-999.0,-99.9,-100.00,NNE,22,7.0,-999.0,-999,-99.99,,,-99.99,,2013-01-29 00:42:00,
2013-01-28 17:02:00,-999.0,-99.9,-100.00,NW,320,8.0,-999.0,-999,-99.99,,,-99.99,,2013-01-29 01:02:00,
2013-01-28 17:12:00,-999.0,-99.9,-100.00,WNW,298,10.0,-999.0,-999,-99.99,,,-99.99,,2013-01-29 01:12:00,
2013-01-28 17:23:00,-999.0,-99.9,-100.00,WNW,298,10.0,-999.0,-999,-99.99,,,-99.99,,2013-01-29 01:23:00,
2013-01-28 17:30:00,-999.0,-99.9,-100.00,NW,326,8.0,-999.0,-999,-99.99,,,-99.99,,2013-01-29 01:30:00,
2013-01-28 17:32:00,-999.0,-99.9,-100.00,NW,315,9.0,-999.0,-999,-99.99,,,-99.99,,2013-01-29 01:32:00,
2013-01-28 17:42:00,48.0,-99.9,-100.00,North,-999,-999.0,-999.0,-999,-99.99,,,-99.99,,2013-01-29 01:42:00,
2013-01-28 17:53:00,-999.0,-99.9,-100.00,NW,326,8.0,-999.0,-999,-99.99,,,-99.99,,2013-01-29 01:53:00,
2013-01-28 18:02:00,-999.0,-99.9,-100.00,NW,326,8.0,-999.0,-999,-99.99,,,-99.99,,2013-01-29 02:02:00,
2013-01-28 18:12:00,-999.0,-99.9,-100.00,NW,326,8.0,-999.0,-999,-99.99,,,-99.99,,2013-01-29 02:12:00,
2013-01-28 18:22:00,-999.0,-99.9,-100.00,NW,326,8.0,-999.0,-999,-99.99,,,-99.99,,2013-01-29 02:22:00,
2013-01-28 18:42:00,-999.0,-99.9,-100.00,NNW,343,6.0,-999.0,-999,-99.99,,,-99.99,,2013-01-29 02:42:00,
2013-01-28 18:53:00,-999.0,-99.9,-100.00,NNW,343,6.0,-999.0,-999,-99.99,,,-99.99,,2013-01-29 02:53:00,
2013-01-28 19:03:00,-999.0,-99.9,-100.00,NW,315,9.0,-999.0,-999,-99.99,,,-99.99,,2013-01-29 03:03:00,
2013-01-28 19:12:00,-999.0,-99.9,-100.00,NW,315,9.0,-999.0,-999,-99.99,,,-99.99,,2013-01-29 03:12:00,
2013-01-28 19:32:00,-999.0,-99.9,-100.00,NW,320,12.0,-999.0,-999,-99.99,,,-99.99,,2013-01-29 03:32:00,
2013-01-28 19:42:00,-999.0,-99.9,-100.00,NNW,337,11.0,-999.0,-999,-99.99,,,-99.99,,2013-01-29 03:42:00,
2013-01-28 20:03:00,45.0,-99.9,-100.00,North,-999,-999.0,-999.0,-999,-99.99,,,-99.99,,2013-01-29 04:03:00,
2013-01-28 20:12:00,45.0,-99.9,-100.00,North,-999,-999.0,-999.0,-999,-99.99,,,-99.99,,2013-01-29 04:12:00,
2013-01-28 20:22:00,-999.0,-99.9,-100.00,NW,320,7.0,-999.0,-999,-99.99,,,-99.99,,2013-01-29 04:22:00,
2013-01-28 22:42:00,-999.0,-99.9,-100.00,ENE,73,3.0,-999.0,-999,-99.99,,,-99.99,,2013-01-29 06:42:00,
2013-01-28 23:21:00,-999.0,-99.9,-100.00,WNW,303,4.0,-999.0,-999,-99.99,,,-99.99,,2013-01-29 07:21:00,
2013-01-28 23:32:00,-999.0,-99.9,-100.00,WNW,303,4.0,-999.0,-999,-99.99,,,-99.99,,2013-01-29 07:32:00,